This demonstration page uses our WeatherBlox Daily Observations layout. Learn more.

38.88101, -77.10428

Hourly Observations for March 20, 2018

Temp ( °F °C ) Dew Point ( °F °C ) Humidity (%) Winds ( mph kmh ) Pressure ( in mb ) Visibility ( mi km ) Precip ( " mm )
12:52 am 00:52 Cloudy 43 6.1 34 1.1 71 71 ENE 14 22 29.88 1012 10 16.0934 0 0
1:52 am 01:52 Cloudy 42 5.6 33 0.6 71 71 NE 13 20 29.89 1012 10 16.0934 0 0
2:52 am 02:52 Cloudy 42 5.6 33 0.6 71 71 ENE 12 19 29.87 1012 10 16.0934 0 0
3:52 am 03:52 Cloudy with Light Rain 41 5 32 0 70 70 ENE 13 20 29.84 1010 10 16.0934 0 0.0254
4:52 am 04:52 Cloudy 41 5 32 0 70 70 NE 13 20 29.82 1010 10 16.0934 0 0.0254
5:52 am 05:52 Cloudy with Light Rain 40 4.4 33 0.6 77 77 ENE 13 20 29.83 1010 7 11.26538 0.02 0.508
6:52 am 06:52 Cloudy with Rain 39 3.9 34 1.1 82 82 NE 15 24 29.81 1010 6 9.65604 0.1 2.54
7:52 am 07:52 Cloudy with Rain 37 2.8 33 0.6 86 86 NNE 17 28 29.81 1010 4 6.43736 0.1 2.54
8:48 am 08:48 Cloudy with Light Rain 37 3 34 1 87 87 NE 22 35 29.77 1008 5 8.0467 0.05 1.27
8:52 am 08:52 Cloudy with Light Rain 37 2.8 34 1.1 89 89 NE 18 30 29.76 1008 5 8.0467 0.06 1.524
9:52 am 09:52 Cloudy with Rain 37 2.8 34 1.1 89 89 NE 17 28 29.77 1008 5 8.0467 0.03 0.762
10:52 am 10:52 Cloudy with Light Rain 37 2.8 33 0.6 86 86 NE 28 44 29.73 1007 6 9.65604 0.06 1.524
11:52 am 11:52 Cloudy with Rain 36 2.2 32 0 86 86 NNE 18 30 29.78 1009 4 6.43736 0.08 2.032
12:26 pm 12:26 Cloudy with Mist and Fog 35 1.7 32 0 89 89 NE 17 28 29.77 1008 6 9.65604 0.07 1.778
12:28 pm 12:28 Cloudy 35 1.7 32 0 89 89 NNE 20 31 29.77 1008 6 9.65604 0.07 1.778
12:52 pm 12:52 Cloudy 35 1.7 32 0 89 89 NNE 24 39 29.75 1007 5 8.0467 0.12 3.048
1:26 pm 13:26 Cloudy 35 1.7 32 0 89 89 NE 16 26 29.77 1008 6 9.65604 0.03 0.762
1:36 pm 13:36 Cloudy 35 1.7 32 0 89 89 NE 16 26 29.77 1008 3 4.82802 0.05 1.27
1:52 pm 13:52 Cloudy 35 1.7 32 0 89 89 NNE 16 26 29.76 1008 3 4.82802 0.09 2.286
2:52 pm 14:52 Cloudy with Mist and Fog 35 1.7 32 0 89 89 NNE 13 20 29.77 1008 5 8.0467 0.08 2.032
3:52 pm 15:52 Cloudy with Mist and Fog 34 1.1 32 0 92 92 NNE 13 20 29.78 1008 4 6.43736 0.05 1.27
4:36 pm 16:36 Cloudy with Light Rain/Snow 34 1.1 31 -0.6 89 89 NNE 13 20 29.8 1009 5 8.0467 0.02 0.508
4:52 pm 16:52 Cloudy with Light Rain/Snow 34 1.1 31 -0.6 89 89 NNE 12 19 29.79 1009 3 4.82802 0.02 0.508
5:40 pm 17:40 Cloudy with Light Rain/Snow 34 1.1 32 0 92 92 N 9 15 29.8 1009 6 9.65604 0.01 0.254
5:45 pm 17:45 Cloudy with Light Rain 34 1.1 32 0 92 92 N 12 19 29.8 1009 6 9.65604 0.01 0.254
5:49 pm 17:49 Cloudy with Light Drizzle 34 1 32 0 93 93 N 13 20 29.8 1009 5 8.0467 0.01 0.254
5:52 pm 17:52 Cloudy with Light Drizzle 34 1.1 32 0 92 92 N 14 22 29.78 1009 5 8.0467 0.01 0.254
6:17 pm 18:17 Cloudy with Light Rain 34 1.1 31 -0.6 89 89 N 15 24 29.8 1009 8 12.87472 0 0.0254
6:23 pm 18:23 Cloudy with Light Rain 34 1.1 31 -0.6 89 89 N 13 20 29.8 1009 10 16.0934 0 0.0254
6:52 pm 18:52 Cloudy with Light Drizzle 34 1.1 30 -1.1 85 85 NNE 15 24 29.79 1009 5 8.0467 0 0.0254
7:22 pm 19:22 Cloudy with Light Rain/Snow 33 0.6 30 -1.1 89 89 NNE 15 24 29.8 1009 4 6.43736 0 0.0254
7:52 pm 19:52 Cloudy with Light Snow 33 0.6 30 -1.1 89 89 NNE 16 26 29.78 1009 5 8.0467 0.01 0.254
7:55 pm 19:55 Cloudy with Light Snow 33 0.6 30 -1.1 89 89 N 13 20 29.8 1009 5 8.0467 0 0.0254
8:19 pm 20:19 Cloudy with Light Snow 33 0.6 30 -1.1 89 89 NNE 12 19 29.77 1008 5 8.0467 0 0.0254
8:21 pm 20:21 Cloudy with Light Snow 33 0.6 30 -1.1 89 89 NNE 13 20 29.77 1008 5 8.0467 0 0.0254
8:37 pm 20:37 Cloudy with Light Wintry Mix 32 0 30 -1.1 92 92 NNE 14 22 29.77 1008 6 9.65604 0.01 0.254
8:52 pm 20:52 Cloudy with Light Freezing Drizzle 32 0 30 -1.1 92 92 NNE 14 22 29.76 1008 6 9.65604 0.01 0.254
9:34 pm 21:34 Cloudy with Light Drizzle 33 0.6 30 -1.1 89 89 NNE 14 22 29.77 1008 8 12.87472 0 0.0254
9:48 pm 21:48 Cloudy with Light Freezing Drizzle 34 1 30 -1 87 87 NNE 14 22 29.77 1008 5 8.0467 0 0.0254
9:52 pm 21:52 Cloudy with Light Freezing Drizzle 32 0 30 -1.1 92 92 NNE 10 17 29.77 1008 5 8.0467 0 0.0254
9:59 pm 21:59 Cloudy with Light Drizzle 32 0 30 -1.1 92 92 NNE 12 19 29.77 1008 5 8.0467 0 0.0254
10:00 pm 22:00 Cloudy with Light Freezing Drizzle 32 0 30 -1.1 92 92 NNE 10 17 29.77 1008 4 6.43736 0 0.0254
10:20 pm 22:20 Cloudy with Light Freezing Drizzle 32 0 30 -1.1 92 92 NNE 15 24 29.74 1007 2.5 4.02335 0 0.0254
10:39 pm 22:39 Cloudy with Light Freezing Drizzle 33 0.6 31 -0.6 92 92 NNE 13 20 29.74 1007 4 6.43736 0 0.0254
10:47 pm 22:47 Cloudy with Light Freezing Drizzle 34 1 30 -1 87 87 NNE 12 19 29.74 1007 5 8.0467 0 0.0254
10:52 pm 22:52 Cloudy with Light Drizzle 33 0.6 31 -0.6 92 92 NNE 14 22 29.74 1007 5 8.0467 0 0.0254
10:58 pm 22:58 Cloudy with Light Freezing Drizzle 32 0 31 -0.6 96 96 NNE 14 22 29.74 1007 5 8.0467 0 0.0254
11:35 pm 23:35 Cloudy with Light Drizzle 33 0.6 31 -0.6 92 92 N 13 20 29.74 1007 3 4.82802 0 0.0254
11:43 pm 23:43 Cloudy with Light Drizzle 33 0.6 31 -0.6 92 92 N 12 19 29.74 1007 2 3.21868 0.01 0.254
11:52 pm 23:52 Cloudy with Light Drizzle 33 0.6 31 -0.6 92 92 N 10 17 29.75 1008 2 3.21868 0.01 0.254

Powered by AerisWeather